Tracking 30070 objects as of 15-Jan-2025
HD Live streaming from Space Station
objects crossing your sky now

COSMOS 1299 FUEL CORE

Track COSMOS 1299 FUEL CORE now!
10-day predictions


NORAD ID: 12808
Int'l Code: 1981-081C
Perigee: 914.3 km
Apogee: 966.7 km
Inclination: 65.1 °
Period: 103.7 minutes
Semi major axis: 7311 km
RCS: 0.1748 m2 (medium)
Launch date: August 24, 1981
Source: Commonwealth of Independent States (former USSR) (CIS)
Launch site: TYURATAM MISSILE AND SPACE COMPLEX (TTMTR)

Note: This is SATELLITE DEBRIS
Your satellite tracking list
Your tracking list is empty




NASA's NSSDC Master Catalog

Two Line Element Set (TLE):
1 12808U 81081C   25015.63013337 -.00000076  00000-0  10867-4 0  9996
2 12808  65.1162 110.1972 0035834 293.9253 175.9782 13.88645157200503
Source of the keplerian elements: AFSPC